Location: Clanezzo
(45.7500°N, 9.6000°E)
Time: 14:48:33
(UTC+00:00)

SPROUT - Pass Details

Date: 11 July 2022
Orbit: 588 x 598 km, 97.9° (Epoch: 19 August)

Event Time Altitude Azimuth Distance (km) Brightness Sun altitude
Exits shadow 22:51:04 12° 91° (E) 1,785 ? -21.7°
Maximum altitude 22:52:56 16° 62° (ENE) 1,592 ? -21.8°
Drops below altitude 10° 22:55:24 10° 25° (NNE) 1,931 ? -21.9°
Sets 22:58:18 0° 3° (N) 2,841 ? -21.9°
